STARLINK-31913, 59667

Orbit data source: Space-Track

STARLINK-31913, 59667 is a payload satellite owned by SpaceX/Seattle (US) in LEO that was launched on Mon, 06 May 2024 UTC via an FALCON 9 launch vehicle from the Air Force Eastern Test Range (AFETR). Payload-class satellites include a variety of spacecraft equipped with specific instruments for various scientific and technological missions. These include communications satellites like Starlink; space stations such as the ISS; scientific satellites like the Hubble; Earth observation satellites from companies like Planet Labs, Umbra, and HawkEye 360; GPS; miniature CubeSats for education and research; and military/defense satellites.

Loading next visibility...
Identifier
59667, 2024-084P
Orbit
LEO
Country
Flag of USUS
Related business
Manufacturer
SpaceX/Seattle
Mission
Operational Commercial Communications
Bus & Motor
STARLINK V2M, Unknown motor
Mass
730 kg wet, ~700 kg dry
Launch date (UTC)
2024-05-06 (1 year ago)
Launch vehicle
FALCON 9
Launch site
Air Force Eastern Test Range (AFETR)
Object type
Payload
Rocket body
Debris
Shape & HBR
Box + 2 Pan, 17.7 m
Radar Cross Section
33.884 m², Large (>1 m²)

Expand to show TLE details & history
Last TLE update: 4 hours ago

TLE from 4 hours ago
0 STARLINK-31913
1 59667U 24084P   25288.65084438  .00004389  00000-0  16895-3 0  9990
2 59667  43.0017 137.2392 0001492 265.9839  94.0842 15.27570833 82238
Epoch: 2025-10-15T15:37Z
TLE epoch observation values (Epoch: 2025-10-15T15:37:12.954Z)
Latitude
-0.00002°
Longitude
-121.48667°
Altitude
482.925 km
Speed
7.626 km/s
True Right ascension
09h 08m 57s
True Declination
0° 00' 00"
Sunlit
Object was in daylight at epoch
Visualization orbit readout
Latitude
Unknown
Longitude
Unknown
Altitude
Unknown
Speed
Unknown
Apparent Right ascension
Unknown
Apparent Declination
Unknown
Sunlit
N/A
Visualization observer readout
Local Sidereal Time
13:49:50
Azimuth
Unknown
Elevation
Unknown
Doppler factor
Unknown
Orbital elements
Apogee altitude
486.045 km
Perigee altitude
483.997 km
Semi-major axis
6,863.158 km
Eccentricity
0.00015
Inclination
43.0017°
RAAN
137.2392°
Arg. of periapsis
265.9839°
True anomaly
94.10125°
Mean anomaly
94.0842°
Eccentric anomaly
94.09273°
Mean motion
3.81731 °/min
Orbital period
94.31 mins
BSTAR
0.00016895
Loading maneuver chart data...
Computing Atmospheric mass density...
Loading historical data...
Loading historical data...
Loading historical data...
Loading historical data...
Loading historical data...
Loading historical data...
Loading historical data...

Documentation

Showing up to 5 results
|